Home   Weather   Ponce   Past weeks

Flag for Puerto Rico Past Weather in Ponce, Puerto Rico — Yesterday and Last 2 Weeks

Now
82 °F

Passing clouds.


Feels Like: 89 °F
Forecast: 79 / 87 °F
Wind: 16 mph from East

Location: Aquadilla / Borinquen

Current Time: Sep 28, 2016 at 9:41:16 PM

Latest Report: Sep 28, 2016 at 7:50 PM


Visibility: 7 mi

Pressure: 30.00 "Hg

Humidity: 79%

Dew Point: 75 °F

Location of PonceLocation

Past Weather in Ponce — Graph

°F

Ponce Temperature Yesterday

Maximum temperature yesterday: 88 °F (at 10:50 AM)
Minimum temperature yesterday: 75 °F (at 6:50 AM)
Average temperature yesterday: 80 °F

High & Low Weather Summary for the Past Weeks

 TemperatureHumidityPressure
High88 °F (Sep 15, 2:50 PM)94% (Sep 15, 1:50 AM)30.07 "Hg (Sep 15, 1:50 AM)
Low73 °F (Sep 17, 11:50 PM)59% (Sep 25, 9:50 AM)29.88 "Hg (Sep 21, 2:50 PM)
Average81 °F79%29.98 "Hg
* Reported Sep 13 7:50 PM — Sep 28 7:50 PM, Ponce, Weather by CustomWeather, © 2016

Note: Actual official high and low records may vary slightly from our data, if they occured in-between our weather recording intervals... More about our weather records

Advertising

Ponce Weather History for the Previous 24 Hours

Scroll right to see more
 ConditionsComfort  
Time TempWeatherWind HumidityBarometerVisibility
7:50 PM
Wed, Sep 28
82 °FPassing clouds.16 mph79%30.00 "Hg7 mi
6:50 PM82 °FPartly sunny.17 mph79%30.00 "Hg7 mi
5:50 PM82 °FBroken clouds.18 mph79%29.98 "Hg7 mi
4:50 PM84 °FScattered clouds.20 mph74%29.98 "Hg7 mi
3:50 PM86 °FScattered clouds.21 mph70%29.99 "Hg7 mi
2:50 PM88 °FScattered clouds.22 mph66%29.99 "Hg7 mi
1:50 PM88 °FScattered clouds.22 mph70%30.00 "Hg7 mi
12:50 PM88 °FScattered clouds.20 mph70%30.02 "Hg6 mi
11:50 AM88 °FScattered clouds.22 mph66%30.04 "Hg7 mi
10:50 AM88 °FScattered clouds.21 mph70%30.06 "Hg10 mi
9:50 AM86 °FScattered clouds.14 mph75%30.07 "Hg10 mi
8:50 AM84 °FScattered clouds.12 mph74%30.06 "Hg10 mi
7:50 AM81 °FScattered clouds.8 mph84%30.05 "Hg10 mi
6:50 AM79 °FClear.9 mph84%30.03 "Hg10 mi
2:50 AM77 °FClear.6 mph89%29.97 "Hg10 mi
1:50 AM77 °FWarm.2 mph89%29.98 "HgN/A
12:50 AM77 °FClear.6 mph94%30.00 "Hg10 mi
11:50 PM
Tue, Sep 27
77 °FClear.5 mph94%30.01 "Hg10 mi
10:50 PM75 °FClear.No wind94%30.00 "Hg10 mi
9:50 PM75 °FClear.No wind94%30.01 "Hg10 mi
Weather by CustomWeather, © 2016

See weather overviewHow to use our weather pages